This demonstration page uses our WeatherBlox Daily Observations layout. Learn more.

Left ArrowRight Arrow

Hourly Observations for October 5, 2022

Temp ( °F °C ) Dew Point ( °F °C ) Humidity (%) Winds ( mph kmh ) Pressure ( in mb ) Visibility ( mi km ) Precip ( " mm )
1:55 am 01:55 Mostly Cloudy 62 16.6 53 11.5 72 72 WNW 7 11 30.06 1018 10 16 0.00 0.00
3:55 am 03:55 Cloudy 61 16 52 11.2 73 73 Calm 30.06 1018 10 16 0.00 0.00
4:55 am 04:55 Cloudy 60 15.5 52 10.9 74 74 WNW 3 6 30.06 1018 10 16 0.00 0.00
5:55 am 05:55 Partly Cloudy 58 14.2 50 10.2 77 77 WNW 9 15 30.07 1018 10 16 0.00 0.00
6:55 am 06:55 Clear 57 13.9 51 10.5 80 80 WNW 8 13 30.07 1018 10 16 0.00 0.00
7:55 am 07:55 Sunny 57 13.7 51 10.7 82 82 NW 12 19 30.08 1019 10 16 0.00 0.00
8:55 am 08:55 Sunny 60 15.5 53 11.7 78 78 NW 15 24 30.10 1019 10 16 0.00 0.00
9:55 am 09:55 Sunny 63 17.2 53 11.7 70 70 NW 10 17 30.11 1020 10 16 0.00 0.00
10:55 am 10:55 Sunny 66 18.9 52 11.2 61 61 NW 13 20 30.11 1020 10 16 0.00 0.00
11:55 am 11:55 Sunny 69 20.8 52 11.1 54 54 NW 12 19 30.10 1019 10 16 0.00 0.00
12:55 pm 12:55 Sunny 73 22.5 50 10 45 45 NW 14 22 30.09 1019 10 16 0.00 0.00
1:55 pm 13:55 Mostly Sunny 74 23.2 49 9.2 41 41 WNW 14 22 30.08 1019 10 16 0.00 0.00
2:55 pm 14:55 Mostly Cloudy 73 22.7 48 9.1 42 42 NNW 13 20 30.06 1018 10 16 0.00 0.00
3:55 pm 15:55 Partly Cloudy 75 23.8 47 8.6 38 38 NW 8 13 30.06 1018 10 16 0.00 0.00
4:55 pm 16:55 Partly Cloudy 76 24.4 47 8.3 36 36 NW 13 20 30.06 1018 10 16 0.00 0.00
5:55 pm 17:55 Mostly Sunny 74 23.5 49 9.5 41 41 N 9 15 30.07 1018 10 16 0.00 0.00
6:55 pm 18:55 Sunny 71 21.4 49 9.6 47 47 NNW 6 9 30.09 1019 10 16 0.00 0.00
7:55 pm 19:55 Clear 67 19.7 49 9.6 52 52 NNW 5 7 30.09 1019 10 16 0.00 0.00
8:55 pm 20:55 Clear 65 18.3 49 9.6 57 57 WNW 5 7 30.11 1020 10 16 0.00 0.00
9:55 pm 21:55 Clear 63 17 50 9.9 63 63 NW 7 11 30.11 1020 10 16 0.00 0.00
10:55 pm 22:55 Clear 60 15.8 50 9.9 68 68 W 6 9 30.13 1020 10 16 0.00 0.00
11:55 pm 23:55 Clear 60 15.5 51 10.3 71 71 NW 6 9 30.12 1020 10 16 0.00 0.00

Powered by AerisWeather